Location: Newark
(47.5833°N, 8.1500°E)
Time: 18:34:43
(UTC+00:00)

Tiros 1 despin weight - Pass Details

Date: 28 October 2020
Orbit: 593 x 642 km, 48.2° (Epoch: 24 November)

Event Time Altitude Azimuth Distance (km) Brightness Sun altitude
Rises 01:49:39 0° 259° (W) 2,851 - -42.4°
Reaches altitude 10° 01:51:57 10° 260° (W) 1,942 - -42.1°
Maximum altitude 01:56:25 89° 349° (N) 602 - -41.5°
Drops below altitude 10° 02:00:51 10° 81° (E) 1,928 - -40.8°
Exits shadow 02:01:28 - 81° (E) 2,175 ? -40.7°
Sets 02:03:07 0° 81° (E) 2,828 ? -40.5°
